Temperature
18 18 18 18 18 18 18 18 18 18 18 18 18 18 18 18 18 18 18 18 18 18 18 18 19 19 19 19 19 19 19 19 18 18 18 18 18 18 18 18 18 18 18
18 17 18 18 18 18 18 18 18 18 18 18 18 18 18 18 18 18 18 18 18 18 18 18 18 18 18 18 18 18 18 18 18 18 18 18 18 18 18 18 18 18 18
18 17 18 18 18 18 18 18 18 18 18 18 18 18 18 18 18 18 18 18 18 18 18 18 18 18 18 18 18 18 18 18 18 18 18 17 17 18 18 18 18 18 18
17 17 17 18 18 18 18 18 18 18 18 18 18 18 17 17 17 17 17 17 17 18 18 18 18 18 18 18 18 18 18 18 18 18 18 17 17 18 18 18 18 18 18
17 17 17 18 18 17 17 17 17 17 17 17 17 17 17 17 17 17 17 17 17 17 17 17 18 18 18 18 18 18 18 18 18 18 17 17 17 18 18 18 18 18 18
17 17 17 17 17 17 17 17 17 17 17 17 17 17 17 17 17 17 17 17 17 17 17 17 17 17 17 17 18 18 18 18 18 17 17 17 17 18 18 18 18 18 18
18 17 17 17 17 17 17 17 17 17 17 17 16 16 16 16 16 16 16 16 16 17 17 17 17 17 17 17 17 18 18 18 17 17 17 17 17 18 18 18 18 18 18
17 17 17 17 17 17 17 17 16 16 16 16 16 16 16 16 16 16 16 16 16 16 16 16 16 17 17 17 17 17 17 18 17 17 17 17 18 18 18 18 18 18 18
17 17 17 17 16 17 16 16 16 16 16 16 16 16 16 16 16 16 16 16 16 16 16 16 16 16 16 17 17 17 17 17 17 17 17 17 17 18 18 18 18 18 18
17 17 17 17 16 16 16 16 16 16 16 16 15 15 15 15 15 15 15 15 15 15 15 16 16 16 16 16 16 17 17 17 17 17 17 17 17 18 18 18 18 18 18
17 17 17 17 16 16 16 16 16 16 16 15 15 15 15 15 15 15 15 15 15 15 15 15 15 16 16 16 16 16 17 16 16 17 17 17 17 18 18 18 18 18 18
18 18 18 17 17 16 16 16 16 15 15 15 15 15 15 15 14 15 14 15 15 15 15 15 15 15 16 16 16 16 16 16 16 17 17 17 17 17 17 18 18 18 18
19 18 18 17 17 17 16 16 16 15 15 15 15 15 15 15 15 15 14 15 14 14 15 15 15 15 15 15 15 16 16 16 16 16 16 17 17 17 17 18 17 17 18
19 18 18 18 17 17 17 16 16 16 15 15 15 15 15 15 14 14 14 14 14 14 14 14 14 15 15 15 15 16 16 16 16 16 16 17 17 17 17 17 17 17 18
19 18 18 18 18 17 17 16 16 16 15 15 15 15 14 14 14 14 14 14 14 14 14 14 14 15 14 15 15 15 15 16 16 16 16 16 17 17 17 17 17 17 18
19 19 18 18 17 17 17 16 16 16 15 15 15 15 14 14 14 14 14 14 14 14 14 14 14 14 14 15 15 15 15 15 16 16 16 16 16 17 17 17 17 17 17
20 19 18 18 17 17 17 16 16 16 15 15 15 15 14 14 14 14 14 14 14 13 14 14 14 14 14 14 15 15 15 15 15 16 16 16 16 16 17 17 17 17 17
20 19 19 18 18 17 17 16 16 16 15 15 14 14 14 14 13 13 13 13 13 13 13 13 14 14 14 14 15 15 15 15 15 15 16 16 16 16 16 17 17 17 17
20 19 19 18 18 17 17 17 16 16 15 15 14 14 14 13 13 13 13 13 13 13 13 13 13 14 14 14 14 15 15 15 15 15 16 16 16 16 16 16 17 17 17
20 20 19 19 18 18 17 16 16 15 15 15 14 14 14 13 13 13 13 13 13 13 13 13 13 13 13 14 14 15 15 15 15 15 15 16 16 16 16 16 16 16 17
20 20 19 19 19 18 17 17 16 16 15 15 14 14 14 13 13 13 13 13 13 13 13 13 13 13 14 14 14 15 15 15 15 15 15 15 15 16 16 16 16 16 16
20 20 20 19 19 18 18 17 16 16 15 15 14 14 14 13 13 13 13 13 13 13 13 13 13 13 13 13 14 15 15 15 15 15 15 15 15 15 15 16 16 16 16
21 20 20 19 19 18 18 17 17 16 15 15 14 14 14 13 13 13 13 13 13 13 13 13 13 13 13 13 14 14 15 15 15 15 14 15 15 15 15 15 16 16 16
21 20 20 19 19 19 18 17 17 16 16 15 14 14 14 13 13 13 13 13 13 13 13 13 13 13 13 13 13 14 14 14 14 15 14 15 15 15 15 15 15 15 16
20 20 20 19 19 19 18 17 17 16 15 15 15 14 14 14 13 13 13 13 13 13 12 12 12 13 13 13 13 13 14 14 14 15 14 14 14 15 15 15 15 15 15
21 21 20 20 19 19 18 18 17 16 16 15 15 14 14 14 13 13 13 13 13 13 13 12 12 13 13 13 13 13 14 14 14 14 14 14 14 14 14 15 15 15 15
Wind_Speed
6 7 8 7 7 8 8 7 7 7 7 6 6 5 4 4 3 3 3 3 2 2 3 3 3 4 4 4 4 4 5 5 5 4 4 4 4 4 5 5 6 5 9
8 8 9 7 7 7 7 7 7 6 6 6 5 5 4 4 4 3 3 2 2 2 3 3 3 3 3 4 4 4 5 5 5 5 4 1 1 3 4 5 7 7 8
8 9 9 8 7 7 7 6 6 6 6 5 5 5 4 4 4 4 3 3 3 3 3 3 3 3 3 3 4 4 5 5 5 5 6 2 2 4 4 5 5 5 6
8 8 8 9 7 7 7 7 6 6 6 5 5 4 4 4 4 4 4 4 4 4 4 4 4 4 3 3 4 4 5 5 5 7 5 3 3 6 4 4 4 4 5
8 8 9 8 8 8 7 7 6 6 6 6 5 4 4 4 4 4 4 4 4 4 4 4 4 4 4 4 4 4 5 5 5 7 4 3 3 4 4 4 4 4 4
9 9 10 7 8 8 7 7 7 6 6 6 5 5 4 4 4 4 5 5 5 5 5 5 4 5 5 5 5 5 5 5 7 4 4 3 3 4 3 3 3 4 4
9 8 9 8 7 7 7 7 7 6 6 6 5 5 5 5 5 5 5 5 5 6 5 5 5 5 5 6 6 5 5 6 7 5 4 3 3 4 3 2 2 3 3
8 8 9 9 7 7 6 6 6 6 6 6 5 5 5 5 5 5 5 5 5 5 5 5 5 5 5 6 6 6 5 8 6 5 5 3 3 3 3 2 1 2 2
7 6 6 7 8 7 6 6 5 6 6 6 6 6 6 5 5 5 5 6 6 6 6 6 5 6 6 6 6 6 5 6 8 6 6 3 2 3 3 1 1 1 1
6 5 5 4 4 4 5 6 5 5 5 5 6 6 4 2 1 2 3 5 6 6 6 6 6 6 6 6 6 5 5 8 8 7 6 1 2 4 3 1 1 1 1
5 4 4 4 3 2 2 4 3 4 3 1 2 3 3 4 5 3 7 7 6 6 6 6 5 6 7 6 5 5 7 7 5 6 5 2 2 3 3 2 2 2 2
6 5 4 3 3 2 1 1 0 1 2 3 4 4 4 5 5 5 2 2 4 4 3 2 4 6 9 6 5 7 6 7 6 6 3 2 2 3 3 2 3 3 3
6 5 4 3 3 1 1 0 1 1 1 2 4 4 4 5 4 4 4 2 3 5 5 3 6 5 5 5 5 6 5 5 5 5 2 2 3 3 3 3 3 4 5
5 4 4 3 2 2 1 0 1 1 2 3 3 5 5 4 4 5 4 5 5 5 5 6 5 6 6 6 6 6 5 5 5 4 2 2 3 3 4 3 4 5 5
6 5 4 4 2 1 1 1 1 1 2 2 3 4 5 4 5 5 5 5 6 6 5 5 6 6 6 6 5 5 5 5 5 5 3 3 3 3 3 3 4 5 5
7 6 5 5 3 2 2 2 1 1 1 3 3 4 4 4 5 5 5 5 6 6 6 6 6 6 6 5 5 5 5 5 5 5 5 4 4 3 3 3 3 4 5
7 6 6 5 4 3 2 1 1 1 2 2 3 4 4 4 5 5 6 6 6 6 6 6 6 6 5 5 5 5 4 4 4 4 4 4 4 5 4 4 4 4 5
7 7 6 5 5 4 2 2 1 1 1 2 2 3 4 4 5 5 5 6 6 6 6 5 5 5 5 4 4 3 3 3 4 4 4 3 3 3 5 4 3 3 4
8 7 7 6 5 4 3 2 1 1 1 1 2 3 3 4 5 5 5 5 6 5 5 6 5 5 5 4 3 3 3 3 3 3 3 3 3 3 3 5 5 4 5
8 8 7 7 6 5 4 3 2 1 1 1 1 2 3 4 5 5 4 5 6 5 5 5 6 5 4 4 4 2 2 2 2 3 3 2 2 3 3 3 4 6 7
9 9 9 8 8 6 4 3 2 2 2 1 1 2 2 3 4 5 5 5 5 5 6 6 5 5 4 4 3 2 1 1 1 1 2 2 2 2 3 3 3 4 6
10 10 9 9 8 7 4 3 2 1 2 1 2 2 2 3 4 5 5 5 5 4 5 6 5 4 4 3 3 3 2 1 1 0 0 1 1 1 2 3 3 3 4
9 10 9 9 9 8 6 4 3 2 2 2 2 2 2 3 3 4 5 5 5 5 5 5 5 5 5 3 3 3 2 1 0 1 1 0 0 0 1 1 2 3 4
7 8 9 9 9 8 7 6 5 3 2 2 2 2 2 2 3 3 4 4 4 4 4 5 5 5 5 4 2 2 3 2 2 0 0 1 1 1 0 1 1 2 2
4 6 7 8 8 8 8 6 6 4 3 2 2 2 3 2 2 3 3 4 4 4 4 5 5 5 4 4 3 3 2 2 3 1 0 0 1 1 1 0 0 1 1
3 4 6 7 8 8 8 8 7 5 4 4 4 3 3 2 2 2 3 3 3 3 4 4 4 4 4 4 4 3 2 2 2 1 1 1 1 1 1 1 1 1 1
Wind_Direction
138 132 121 129 123 120 119 118 117 113 110 107 105 103 99 94 92 86 82 71 55 46 40 36 36 34 30 29 31 29 25 21 19 13 11 11 14 15 13 6 346 28 40
132 128 122 124 123 121 118 116 112 106 102 97 92 85 77 72 70 63 55 48 40 33 24 12 13 16 15 16 19 20 15 9 5 4 345 294 71 21 9 10 5 29 32
129 128 130 122 119 114 111 110 106 99 91 85 77 68 61 56 50 39 27 13 4 359 354 348 350 354 360 357 1 4 4 360 356 340 291 294 80 62 19 22 22 28 31
124 124 113 114 112 107 103 101 95 87 80 74 67 59 49 40 30 19 6 353 347 338 329 323 325 325 331 338 343 345 349 349 345 310 293 351 359 61 20 22 21 22 28
117 113 107 108 104 101 96 91 87 81 73 66 60 51 40 24 9 2 353 340 335 327 316 312 314 313 314 321 328 330 335 334 319 293 332 335 339 43 8 10 13 15 26
117 113 109 106 101 98 94 89 83 76 69 61 51 40 28 15 2 356 349 337 330 322 314 312 309 302 303 309 314 317 324 324 292 306 312 309 329 35 356 1 10 8 21
120 116 112 104 101 97 92 86 80 74 67 59 48 35 24 14 3 354 341 329 324 322 318 316 316 309 305 308 307 309 317 311 290 290 283 291 346 4 335 351 358 3 20
120 118 115 113 100 94 88 83 76 67 62 55 45 31 21 13 4 356 348 338 329 321 315 313 309 304 300 298 298 300 304 295 274 275 275 281 24 328 311 329 348 354 19
125 121 119 122 123 115 95 79 72 65 55 46 37 31 26 22 13 5 351 344 333 324 317 311 306 304 300 297 294 289 289 293 282 270 269 274 33 309 293 300 328 335 54
139 134 125 120 113 112 112 97 76 65 53 47 41 32 14 355 23 356 328 11 345 335 328 323 313 305 299 291 289 283 275 267 262 265 264 298 13 300 280 261 252 232 158
152 148 143 136 124 112 95 102 112 100 71 47 80 66 314 342 353 325 25 12 356 346 338 334 324 306 288 251 246 260 258 254 259 263 259 40 317 293 276 247 213 205 186
165 163 160 162 154 151 124 113 89 53 43 8 9 8 354 359 350 337 59 8 353 336 300 328 305 272 266 265 218 222 247 246 251 251 237 107 283 280 275 252 213 202 194
166 167 171 173 176 181 177 280 359 2 2 355 4 356 343 341 338 341 336 332 325 307 317 315 281 295 298 293 286 265 261 262 258 259 222 118 268 267 268 247 214 204 198
182 180 179 188 186 191 223 272 277 315 340 353 356 349 347 347 336 351 337 342 328 327 328 314 306 303 301 291 278 274 262 252 256 260 236 139 266 265 258 241 211 205 203
192 195 193 201 209 195 185 255 265 318 332 359 354 340 347 342 343 348 340 340 327 327 318 314 306 311 301 295 286 280 272 260 258 251 238 173 233 255 250 242 225 210 199
201 197 189 201 205 216 220 234 275 314 312 332 345 345 346 344 342 339 337 340 337 332 327 314 312 307 296 293 284 282 274 263 258 253 253 204 190 217 234 242 238 220 201
203 200 192 198 204 214 234 250 266 278 313 332 346 342 349 348 342 341 340 341 344 335 327 321 318 307 297 289 276 269 262 262 264 261 254 245 211 184 189 214 224 221 207
208 203 191 196 201 201 207 226 241 266 313 331 340 339 345 350 347 345 341 343 342 334 332 328 323 315 304 296 288 277 260 245 251 255 247 227 226 213 177 180 199 208 197
211 205 196 197 200 190 182 193 219 238 279 320 333 344 341 347 344 344 344 341 341 338 337 333 338 324 317 310 294 276 269 256 251 250 246 236 217 211 195 160 178 193 194
212 206 198 192 194 177 174 186 186 224 243 290 329 344 338 336 341 340 336 341 342 340 341 340 337 327 317 310 302 303 284 265 244 250 253 240 223 206 198 194 188 184 187
206 203 195 193 184 178 175 192 211 225 241 263 302 336 322 325 332 336 330 340 341 346 343 341 339 328 326 323 298 288 233 234 262 252 254 252 219 201 189 194 203 195 186
204 201 197 194 187 187 184 187 201 235 257 277 272 274 301 319 327 328 332 334 343 341 344 349 346 331 334 331 314 296 252 175 149 87 274 258 247 195 202 194 191 201 210
205 201 198 194 188 189 181 172 171 192 232 234 250 266 289 306 316 322 330 334 340 341 354 349 344 339 330 334 341 320 310 324 43 106 58 71 28 245 206 208 186 195 194
206 202 200 194 192 187 183 193 202 230 264 282 284 277 269 278 301 311 321 328 334 342 346 345 354 337 327 329 340 335 327 327 295 224 113 60 53 49 59 202 176 170 170
195 195 197 192 192 189 194 198 215 237 259 268 265 261 272 276 284 294 309 318 330 335 344 344 344 342 338 335 334 330 319 313 284 283 244 132 75 47 33 106 156 148 136
156 180 189 192 193 193 199 206 220 234 243 252 256 264 266 269 274 276 287 303 317 332 335 336 333 341 343 342 333 333 327 317 306 292 261 217 122 57 64 78 96 118 119
Height
1527 1528 1528 1529 1530 1531 1532 1533 1534 1534 1535 1535 1535 1535 1535 1535 1535 1535 1535 1535 1535 1535 1534 1534 1533 1533 1532 1532 1531 1530 1530 1529 1528 1527 1526 1526 1525 1524 1523 1521 1520 1520 1517
1528 1529 1529 1530 1531 1532 1533 1534 1534 1535 1535 1535 1535 1536 1536 1536 1535 1535 1535 1535 1535 1535 1534 1534 1534 1533 1533 1532 1531 1531 1530 1530 1529 1528 1527 1527 1526 1525 1524 1522 1521 1520 1518
1529 1530 1530 1531 1532 1533 1534 1534 1535 1535 1535 1535 1535 1536 1536 1536 1535 1535 1535 1535 1535 1535 1534 1534 1534 1533 1533 1532 1532 1531 1531 1530 1529 1529 1528 1529 1528 1526 1524 1523 1522 1521 1519
1530 1531 1532 1532 1533 1533 1534 1534 1535 1535 1535 1535 1535 1535 1535 1535 1535 1535 1535 1535 1534 1534 1534 1533 1533 1533 1532 1532 1531 1531 1531 1530 1530 1529 1530 1530 1529 1526 1525 1524 1523 1522 1521
1531 1532 1532 1533 1534 1534 1534 1535 1535 1535 1535 1535 1535 1535 1535 1535 1534 1534 1534 1534 1533 1533 1533 1533 1532 1532 1532 1531 1531 1531 1530 1530 1530 1530 1530 1529 1528 1527 1526 1525 1524 1523 1522
1533 1534 1534 1534 1534 1535 1535 1535 1535 1535 1535 1535 1535 1534 1534 1534 1533 1533 1533 1533 1532 1532 1532 1531 1531 1531 1531 1530 1530 1530 1530 1529 1530 1530 1530 1529 1529 1527 1526 1525 1525 1524 1522
1534 1535 1535 1535 1535 1536 1536 1536 1536 1535 1535 1535 1534 1534 1533 1533 1532 1532 1532 1531 1531 1531 1530 1530 1530 1529 1529 1529 1529 1529 1528 1528 1529 1529 1529 1529 1528 1527 1526 1526 1525 1525 1524
1536 1537 1536 1536 1536 1536 1536 1536 1536 1536 1535 1534 1534 1534 1533 1532 1532 1531 1530 1530 1529 1529 1529 1528 1528 1528 1527 1527 1527 1527 1527 1527 1529 1529 1529 1529 1527 1527 1527 1526 1526 1525 1525
1537 1537 1538 1539 1538 1537 1537 1537 1536 1536 1535 1535 1534 1533 1533 1532 1531 1530 1530 1529 1528 1528 1527 1527 1526 1526 1526 1526 1525 1525 1525 1526 1527 1528 1528 1528 1527 1527 1527 1526 1526 1526 1526
1538 1538 1539 1539 1540 1540 1539 1538 1537 1536 1536 1535 1534 1533 1532 1532 1531 1530 1529 1528 1527 1526 1526 1525 1525 1524 1524 1523 1523 1523 1524 1524 1526 1527 1527 1527 1526 1526 1526 1526 1526 1526 1526
1538 1539 1540 1540 1540 1540 1540 1539 1538 1537 1536 1536 1535 1533 1533 1533 1532 1531 1529 1527 1526 1525 1524 1524 1523 1522 1522 1522 1521 1521 1522 1523 1524 1525 1526 1525 1525 1525 1526 1526 1526 1526 1527
1539 1540 1540 1540 1540 1540 1540 1540 1539 1539 1537 1537 1536 1534 1534 1533 1531 1530 1528 1526 1525 1524 1523 1522 1522 1521 1521 1522 1521 1520 1521 1522 1522 1523 1524 1523 1524 1524 1525 1525 1526 1526 1527
1540 1540 1540 1541 1541 1541 1541 1540 1540 1539 1537 1537 1536 1534 1533 1532 1531 1530 1529 1527 1526 1524 1524 1522 1522 1521 1521 1520 1519 1520 1519 1520 1520 1521 1522 1521 1522 1523 1524 1524 1525 1526 1527
1539 1540 1540 1541 1541 1541 1541 1540 1539 1539 1538 1537 1536 1535 1534 1532 1531 1530 1528 1527 1525 1524 1522 1521 1520 1520 1519 1519 1518 1518 1518 1518 1518 1519 1519 1519 1520 1521 1522 1523 1524 1525 1526
1539 1539 1540 1540 1541 1541 1540 1539 1539 1538 1538 1537 1535 1534 1533 1532 1531 1529 1528 1526 1525 1523 1522 1520 1519 1519 1517 1517 1517 1516 1516 1516 1516 1517 1518 1517 1518 1520 1521 1522 1523 1524 1525
1538 1539 1539 1539 1540 1540 1540 1539 1539 1538 1537 1537 1535 1534 1533 1531 1530 1529 1528 1525 1524 1522 1520 1519 1518 1517 1516 1515 1515 1514 1514 1514 1514 1515 1516 1516 1517 1518 1519 1521 1522 1523 1525
1538 1538 1539 1539 1539 1539 1539 1539 1538 1537 1537 1536 1535 1534 1532 1531 1530 1528 1527 1525 1523 1521 1519 1518 1517 1515 1515 1514 1513 1513 1512 1512 1513 1513 1514 1515 1515 1516 1517 1519 1520 1522 1524
1536 1537 1538 1538 1538 1538 1538 1537 1538 1537 1536 1536 1534 1533 1532 1531 1529 1528 1526 1525 1522 1520 1519 1517 1516 1515 1514 1513 1512 1512 1511 1511 1511 1512 1512 1513 1514 1515 1516 1517 1519 1521 1522
1534 1536 1536 1537 1537 1537 1537 1536 1536 1536 1535 1535 1534 1533 1531 1530 1529 1528 1525 1524 1522 1520 1518 1517 1515 1514 1513 1512 1511 1510 1510 1510 1510 1511 1511 1512 1513 1513 1515 1516 1518 1520 1521
1532 1534 1535 1535 1536 1536 1536 1536 1536 1535 1535 1534 1533 1532 1530 1529 1528 1527 1525 1524 1522 1520 1518 1516 1515 1513 1512 1511 1511 1510 1509 1509 1509 1509 1510 1511 1511 1512 1513 1514 1516 1518 1520
1530 1532 1533 1534 1535 1535 1535 1535 1535 1535 1535 1534 1533 1531 1530 1529 1528 1526 1525 1523 1521 1520 1518 1516 1515 1514 1512 1511 1511 1510 1509 1508 1508 1508 1508 1509 1510 1510 1511 1513 1515 1517 1518
1528 1530 1531 1532 1533 1534 1535 1535 1534 1534 1534 1533 1532 1530 1529 1528 1527 1526 1525 1523 1521 1519 1517 1516 1514 1513 1512 1511 1511 1509 1509 1509 1507 1507 1507 1508 1509 1509 1510 1512 1513 1515 1517
1526 1527 1529 1531 1532 1533 1533 1534 1533 1533 1533 1533 1532 1530 1529 1528 1526 1525 1524 1523 1521 1520 1518 1516 1514 1513 1512 1511 1510 1510 1509 1508 1508 1508 1507 1507 1508 1508 1509 1511 1512 1514 1516
1523 1525 1527 1529 1530 1532 1532 1533 1533 1533 1533 1533 1531 1530 1529 1527 1526 1524 1523 1522 1521 1520 1518 1517 1515 1513 1512 1511 1510 1509 1509 1508 1508 1508 1508 1507 1507 1508 1508 1509 1511 1512 1514
1522 1523 1525 1527 1529 1530 1531 1532 1532 1532 1532 1531 1530 1529 1528 1527 1526 1524 1523 1522 1521 1519 1518 1516 1514 1513 1512 1511 1510 1509 1508 1507 1508 1507 1507 1508 1507 1507 1508 1509 1510 1511 1512
1520 1522 1523 1525 1527 1528 1529 1530 1530 1531 1530 1530 1529 1529 1528 1527 1526 1524 1523 1522 1521 1519 1518 1516 1514 1513 1512 1510 1510 1509 1508 1508 1507 1507 1507 1507 1507 1508 1508 1508 1509 1510 1511